Flag for Germany Weather past 2 weeks in Menden (Sauerland), North Rhine-Westphalia, Germany

Now
79 °F

Passing clouds.


Feels Like: 79 °F
Forecast: 57 / 78 °F
Wind: 13 mph from South

Location: Dortmund / Wickede

Current Time: Aug 3, 2015 at 11:03:54 AM

Latest Report: Aug 3, 2015 at 10:20 AM


Visibility: N/A

Pressure: 30.01 "Hg

Humidity: 34%

Dew point: 48 °F

Location of Menden (Sauerland)Location

Historic Weather in Menden (Sauerland) — Graph

°F

Menden (Sauerland) temperature yesterday

Maximum temperature yesterday: 77 °F (at 3:50 PM)
Minimum temperature yesterday: 50 °F (at 5:20 AM)
Average temperature yesterday: 68 °F

Past Weeks' High & Low Weather Summary

 TemperatureHumidityPressure
High81 °F (Jul 24, 5:50 PM)88% (Jul 19, 9:20 AM)30.15 "Hg (Jul 19, 9:20 AM)
Low45 °F (Jul 31, 5:20 AM)27% (Aug 2, 3:20 PM)29.50 "Hg (Jul 25, 7:50 AM)
Average64 °F63%29.88 "Hg
* Reported Jul 19 9:20 AM — Aug 3 9:50 AM, Menden (Sauerland), Weather by CustomWeather, © 2015

Note: Actual official high and low records may vary slightly from our data, if they occured in-between our weather recording intervals... More about our weather records

Advertising

Menden (Sauerland) weather history for previous 24 hours

 ConditionsComfort  
Time TempWeatherWind HumidityBarometerVisibility
9:50 AM
Mon, Aug 3
79 °FPassing clouds.13 mph39%29.98 "HgN/A
9:20 AM75 °FSunny.10 mph39%29.98 "Hg10 mi
8:50 AM72 °FSunny.8 mph47%29.98 "Hg10 mi
8:20 AM70 °FSunny.7 mph46%29.98 "Hg10 mi
7:50 AM68 °FSunny.7 mph49%29.98 "Hg10 mi
7:20 AM64 °FSunny.8 mph56%29.98 "Hg10 mi
6:50 AM63 °FClear.8 mph59%29.98 "Hg10 mi
6:20 AM63 °FClear.8 mph59%29.98 "Hg10 mi
5:50 AM63 °FClear.7 mph59%30.01 "Hg10 mi
5:20 AM61 °FClear.6 mph63%30.01 "Hg10 mi
10:50 PM
Sun, Aug 2
66 °FClear.5 mph46%30.07 "Hg10 mi
10:20 PM66 °FClear.3 mph49%30.07 "Hg10 mi
9:50 PM68 °FSunny.5 mph43%30.07 "Hg10 mi
9:20 PM70 °FSunny.6 mph40%30.07 "Hg10 mi
8:50 PM72 °FSunny.7 mph38%30.07 "Hg10 mi
8:20 PM73 °FSunny.10 mph36%30.07 "Hg10 mi
7:50 PM75 °FSunny.8 mph31%30.07 "Hg10 mi
7:20 PM77 °FSunny.8 mph30%30.07 "Hg10 mi
6:50 PM75 °FSunny.7 mph34%30.07 "Hg10 mi
6:20 PM77 °FPassing clouds.5 mph30%30.07 "HgN/A
5:50 PM77 °FPassing clouds.5 mph30%30.09 "HgN/A
5:20 PM77 °FSunny.3 mph28%30.09 "Hg10 mi
4:50 PM77 °FSunny.3 mph28%30.09 "Hg10 mi
4:20 PM77 °FSunny.5 mph28%30.09 "Hg10 mi
3:50 PM77 °FPassing clouds.6 mph30%30.09 "HgN/A
3:20 PM75 °FPassing clouds.5 mph27%30.12 "HgN/A
2:50 PM75 °FSunny.5 mph31%30.12 "Hg10 mi
2:20 PM75 °FSunny.5 mph31%30.12 "Hg10 mi
1:50 PM73 °FSunny.3 mph31%30.12 "Hg10 mi
1:20 PM73 °FSunny.5 mph31%30.15 "Hg10 mi
12:50 PM73 °FSunny.3 mph33%30.15 "Hg10 mi
12:20 PM72 °FSunny.3 mph36%30.15 "Hg10 mi
11:50 AM72 °FSunny.3 mph38%30.15 "Hg10 mi
11:20 AM70 °FSunny.2 mph43%30.15 "Hg10 mi
Weather by CustomWeather, © 2015

See weather overviewHow to use our weather pages